Greenville, ME

6:07 PM EST on February 24, 2017 (GMT -0500)
Greenville

Weather History for KGNR - October, 2013

Change the Weather History Date:

Saturday, October 26, 2013

  Actual Average (KMLT) Record (KMLT)
Temperature  
Mean Temperature 34 °F -  
Max Temperature 39 °F 52 °F 78 °F (1963)
Min Temperature 28 °F 32 °F 19 °F (1993)
Degree Days  
Heating Degree Days 32    
Moisture  
Dew Point 26 °F    
Average Humidity 74    
Maximum Humidity 96    
Minimum Humidity 55    
Precipitation  
Precipitation 0.02 in - - ()
Sea Level Pressure  
Sea Level Pressure 29.94 in    
Wind  
Wind Speed 4 mph (South)    
Max Wind Speed 12 mph    
Max Gust Speed 18 mph    
Averages and records for this station are not official NWS values.
T = Trace of Precipitation, MM = Missing Value Source: NWS Daily Summary

Daily Weather History Graph

Daily Weather History Graph

Search for Another Location

Airport or City:

Trip Planner

Search our weather history database for the weather conditions in past years. The results will help you decide how hot, cold, wet, or windy it might be!

Date:

Astronomy

Oct. 26, 2013 Rise Set
Actual Time 7:09 AM EDT 5:34 PM EDT
Civil Twilight 6:39 AM EDT 6:04 PM EDT
Nautical Twilight 6:04 AM EDT 6:39 PM EDT
Astronomical Twilight 5:30 AM EDT 7:13 PM EDT
Moon 11:45 PM EDT (10/26) 1:26 PM EDT (10/26)
Length of Visible Light 11h 25m
Length of Day
10h 24m
Waning Gibbous, 53% of the Moon is Illuminated
Oct 26
Waning Gibbous
Oct 26
Last Quarter
Nov 3
New
Nov 10
First Quarter
Nov 17
Full

Hourly Weather History & Observations

Time (EDT) Temp. Windchill Dew Point Humidity Pressure Visibility Wind Dir Wind Speed Gust Speed Precip Events Conditions
12:56 AM 32.0 °F 28.7 °F 24.1 °F 73% 30.01 in - Variable 3.5 mph - N/A   Unknown
1:56 AM 30.9 °F 26.2 °F 24.1 °F 76% 30.01 in - Variable 4.6 mph - N/A   Unknown
2:56 AM 30.0 °F 26.5 °F 24.1 °F 79% 30.00 in - NW 3.5 mph - N/A   Unknown
3:56 AM 28.9 °F - 23.0 °F 78% 30.00 in - Calm Calm - N/A   Unknown
4:56 AM 32.0 °F 28.7 °F 21.9 °F 66% 30.01 in - Variable 3.5 mph - N/A   Unknown
5:56 AM 30.0 °F - 21.0 °F 69% 30.02 in - Calm Calm - N/A   Unknown
6:56 AM 28.0 °F - 21.9 °F 78% 30.02 in - Calm Calm - N/A   Unknown
7:56 AM 30.9 °F - 21.9 °F 69% 30.02 in - Calm Calm - N/A   Unknown
8:56 AM 32.0 °F 28.7 °F 21.9 °F 66% 30.04 in - SW 3.5 mph - N/A   Unknown
9:56 AM 33.1 °F 28.7 °F 23.0 °F 66% 30.02 in - Variable 4.6 mph - N/A   Unknown
10:56 AM 35.1 °F 32.2 °F 23.0 °F 61% 30.01 in - Variable 3.5 mph - N/A   Unknown
11:56 AM 37.0 °F 29.8 °F 24.1 °F 59% 29.98 in - South 10.4 mph 16.1 mph N/A   Unknown
12:56 PM 39.9 °F 37.8 °F 25.0 °F 55% 29.94 in - Variable 3.5 mph - N/A   Unknown
1:56 PM 37.9 °F 32.7 °F 25.0 °F 60% 29.92 in - Variable 6.9 mph - N/A   Unknown
2:56 PM 39.0 °F 32.8 °F 27.0 °F 62% 29.90 in - South 9.2 mph - N/A   Unknown
3:56 PM 39.0 °F 31.8 °F 28.9 °F 67% 29.88 in - South 11.5 mph 18.4 mph N/A   Unknown
4:56 PM 37.0 °F 31.6 °F 32.0 °F 82% 29.87 in - Variable 6.9 mph - N/A   Unknown
5:56 PM 35.1 °F 31.0 °F 33.1 °F 92% 29.87 in - South 4.6 mph - 0.01 in   Unknown
6:56 PM 35.1 °F 32.2 °F 33.1 °F 92% 29.87 in - Variable 3.5 mph - 0.01 in   Unknown
7:56 PM 35.1 °F 32.2 °F 34.0 °F 96% 29.87 in - SSE 3.5 mph - N/A   Unknown
8:56 PM 35.1 °F 31.0 °F 33.1 °F 92% 29.84 in - South 4.6 mph - N/A   Unknown
9:56 PM 36.0 °F 29.6 °F 30.9 °F 82% 29.83 in - South 8.1 mph - N/A   Unknown
10:56 PM 37.0 °F 32.4 °F 28.9 °F 73% 29.81 in - South 5.8 mph - N/A   Unknown
11:56 PM 36.0 °F 32.1 °F 28.9 °F 76% 29.80 in - South 4.6 mph - N/A   Unknown